{"data":{"norad_id":64505,"intl_designator":"2025-134F","name":"KUIPER-00044","alt_names":[],"object_type":"PAYLOAD","status":"ACTIVE","operator":null,"country":"US","launch_date":"2025-06-23","launch_site_code":"AFETR","launch_vehicle":null,"mission":null,"orbit_class":"UNKNOWN","rcs_meters":null,"size_class":null,"mass_kg":null,"dimensions":null,"purposes":[],"wikipedia_slug":null,"has_3d_model":false,"image_url":null,"decayed_at":null,"tle_current":{"epoch":"2026-09-21T18:10:23.286144Z","epoch_age_seconds":73177,"freshness":"FRESH","line1":"1 64505U 25134F   26264.75721396  .00000769  00000+0  12984-3 0  9993","line2":"2 64505  51.8993  98.5401 0000782 113.5020 246.6025 14.79933192 68932","mean_motion":14.79933192,"eccentricity":7.82e-5,"inclination_deg":51.8993,"raan_deg":98.5401,"arg_perigee_deg":113.502,"mean_anomaly_deg":246.6025,"bstar":0.00012984,"rev_number":6893,"period_min":97.301689548159,"perigee_km":628.98702312643,"apogee_km":630.08302303084,"semimajor_km":7007.6720230786,"source":"CELESTRAK","updated_at":"2026-09-22T09:00:29.807075Z"}}}